STARLINK-36149

Last updated on Fri Dec 19 2025 00:02:09 GMT+0000 (Coordinated Universal Time)

1 66969U 25288L 25352.58336806 -.01430573 00000+0 -63684-2 0 9990 2 66969 43.0010 131.3451 0001285 274.8714 320.4311 15.86278804 2772
UTC large
Height (km)
Speed (km/s)
/
Latitude / Longitude
Inclination (degrees)
Orbital Period (minutes)
Azimuth
Elevation
Range (km)
Doppler Factor

Next 0 passes for location: London (51.5072 / 0.1276)

Sorry there are no passes over London.